www.pogodaiklimat.ru

Погода и климат >> Архив погоды >> Китай >> Шаньси >> Юаньпин


ПОГОДА в Юаньпине

  • Прогноз погоды в Юаньпине
  • Монитор погоды в Юаньпине

АРХИВ ПОГОДЫ в Юаньпине

Время (UTC), дата Ветер
(напр.,м/с)
 
Видим.   Явления Облачность Т
(С)
Тd
(С)
f
(%)
Тe
(С)
Тes
(С)
Комфортность P
(гПа)
Po
(гПа)
Тmin
(С)
Tmax
(С)
R
(мм)
R24
(мм)
S
(см)
18 19.05 СЗ 6 30 км ?/? +11.9 -16.6 12 +10 +10 1018.5 921.1 +16.5
21 19.05 СЗ 6 30 км н/о +12.0 -15.6 13 +10 +10 1017.7 920.5
00 20.05 С 6 30 км 1/1
[]
+14.6 -15.5 11 +13 +15 1018.0 921.6
03 20.05 СЗ 7 30 км 3/3
[]
+17.8 -14.2 10 +17 +21 1017.5 922.1
06 20.05 СЗ 8 30 км 3/3
[]
+20.8 -14.7 8 +19 +22 1014.2 920.0 +10.6
09 20.05 С 7 30 км ясно +21.9 -15.5 7 +20 +21 1011.2 917.7
12 20.05 С 2 30 км ясно +19.5 -14.2 9 +20 +20 1011.4 917.1
18 20.05 З 1 30 км ?/? +11.0 -4.6 33 +11 +11 1011.5 914.5 +22.0
21 20.05 штиль 0 30 км н/о +9.6 -4.4 37 +10 +10 1011.1 913.7
00 21.05 Ю 1 30 км 4/4 1000 м
[]
+17.4 -3.9 23 +19 +23 1010.4 915.6
03 21.05 С 7 30 км 8/8 1000 м
[]
+24.5 -13.6 7 +21 +22 комфорт 1009.4 916.8
06 21.05 СЗ 5 30 км 5/5 1000 м
[]
+27.6 -11.3 7 +24 +29 комфорт 1007.1 915.6 +9.2
09 21.05 С 5 30 км 1/1 1000 м
[]
+28.6 -14.7 5 +24 +27 комфорт 1005.2 914.2
12 21.05 З 2 30 км ясно +24.1 -10.7 9 +21 +21 комфорт 1005.7 913.8
18 21.05 С 1 30 км ?/? +15.3 -4.6 25 +16 +16 1006.8 911.6 +28.8
21 21.05 С 1 30 км н/о +12.1 -1.4 39 +13 +13 1007.2 911.0
00 22.05 штиль 0 30 км ясно +17.7 -1.5 27 +18 +25 1008.4 913.8
03 22.05 В 3 30 км ясно +27.0 -5.9 11 +24 +39 комфорт 1006.4 914.8
06 22.05 С 5 30 км ясно +32.0 -23.2 2 +27 +37 жарко 1003.9 914.0 +11.4
09 22.05 С 5 30 км ясно +32.2 -18.4 3 +27 +30 жарко 1002.8 913.0
12 22.05 З 2 30 км ясно +27.2 -7.0 10 +24 +24 комфорт 1003.1 911.9
18 22.05 штиль 0 30 км ?/? +17.1 -1.1 29 +17 +17 1005.2 910.8 +32.6
21 22.05 С 2 30 км н/о +14.7 -3.1 29 +15 +15 1006.6 911.3
00 23.05 штиль 0 30 км ясно +21.1 -0.8 23 +21 +28 комфорт 1008.0 914.5
03 23.05 ЮВ 2 30 км ясно +28.8 -5.8 10 +25 +43 комфорт 1006.7 915.6
06 23.05 Ю 3 30 км 5/5
[]
+33.5 -14.0 4 +29 +36 жарко 1003.3 913.8 +14.6
09 23.05 Ю 4 30 км 8/8
[]
+33.4 -14.1 4 +29 +29 жарко 1002.2 912.8
12 23.05 Ю 1 30 км 9/9
[]
+29.4 -6.7 9 +26 +26 жарко 1002.0 911.5
18 23.05 СЗ 1 30 км ?/? +19.9 -2.4 22 +21 +21 комфорт 1003.1 909.7 +34.2
21 23.05 С 1 30 км н/о +18.5 -1.3 26 +20 +20 1002.6 908.8
00 24.05 С 1 24 км 8/8
[]
+22.2 +2.3 27 +22 +23 комфорт 1003.2 910.5
03 24.05 Ю 3 30 км 5/5
[]
+28.8 -3.4 12 +26 +33 жарко 1001.8 911.1
06 24.05 Ю 4 30 км 3/3 1000 м
[]
+31.4 -3.9 10 +28 +36 жарко 1000.0 910.2 +18.5
09 24.05 З 2 30 км 3/3
[]
+31.1 -5.5 9 +27 +31 жарко 998.8 909.1
12 24.05 ЮВ 2 30 км 3/3
[]
+26.8 +2.0 20 +25 +25 комфорт 1000.1 909.0
18 24.05 С 2 30 км ?/? +19.8 +4.3 36 +21 +21 комфорт 1001.2 908.0 +31.7
21 24.05 С 2 30 км н/о +17.7 +4.6 42 +18 +18 1002.0 908.0
00 25.05 С 2 16 км 3/3
[]
+20.2 +6.2 40 +22 +26 комфорт 1003.1 909.8
03 25.05 Ю 2 24 км 3/3
[]
+26.8 +5.7 26 +26 +39 жарко 1002.2 910.9
06 25.05 Ю 4 30 км 5/5
[]
+31.1 +4.8 19 +29 +35 жарко 999.3 909.5 +16.9
09 25.05 Ю 2 30 км 3/3
[]
+32.4 +1.5 14 +29 +33 жарко 997.6 908.3
12 25.05 ЮВ 4 30 км 3/3
[]
+27.7 +8.1 29 +27 +27 жарко 999.3 908.6
18 25.05 С 1 30 км ?/? +21.8 +11.2 51 +24 +24 комфорт 1000.5 907.9 +32.6
21 25.05 С 4 19 км н/о +21.2 +11.8 55 +23 +23 комфорт 1000.9 908.1
00 26.05 С 4 30 км 9/9 1000 м
[]
+21.7 +7.2 39 +23 +23 комфорт 1003.2 910.3
03 26.05 С 7 30 км 5/5 1000 м
[]
+25.7 +1.8 21 +24 +27 комфорт 1002.9 911.3
06 26.05 З 3 30 км 5/5
[]
+29.5 -20.2 3 +25 +32 комфорт 1000.5 910.2 +20.3
09 26.05 СЗ 11
{20}
30 км 9/9 1000 м
[]
+23.1 -4.1 16 +21 +21 комфорт 1005.3 912.7
12 26.05 С 9
{20}
30 км 9/9 1000 м
[]
+20.0 -1.2 24 +19 +19 1008.9 915.0

 

Местоположение метеостанции Юаньпин (Шаньси, Китай): широта 38.75 долгота 112.70 высота над уровнем моря 838 м.

В архиве по умолчанию представлена погода в Юаньпине за последнюю неделю. Архивные данные за месяц целиком и за предыдущие месяцы, начиная с января 2011 года, Вы можете получить, выбрав интересующий диапазон дат из раскрывающегося списка и нажав кнопку "Ввод!".


*Определитесь, кто Вы:
робот инопланетянин человек

Внимание! Время в таблицах - всемирное. Для получения местного времени необходимо прибавить поправку, которая равна 8 ч.

Смотрите также архив погоды в соседних городах и на ближайших метеорологических станциях:

Погода на Утайшане (Шаньси, Китай) (74 км)
Погода в Тайюанье (Шаньси, Китай) (109 км)
Погода в Хэцюе (Шаньси, Китай) (151 км)
Погода в Датуне (Шаньси, Китай) (160 км)
Погода в Шицзячжуане (Хэбэй, Китай) (169 км)
Погода в Юйшэ (Шаньси, Китай) (188 км)
Погода в Лиши (Шаньси, Китай) (197 км)
Погода в Юйсяне (Шаньси, Китай) (200 км)
Погода в Цзесю (Шаньси, Китай) (203 км)
Погода в Синтае (Хэбэй, Китай) (245 км)

Пояснения к столбцам:

Ветер - указаны скорость ветра в м/с - средняя за 10 мин, порывы в срок и между сроками (в фигурных скобках) и направление, откуда дует ветер: С - северный, СВ - северо-восточный, В - восточный, ЮВ - юго-восточный, Ю - южный, ЮЗ - юго-западный, З - западный, СЗ - северо-западный.
Видимость - горизонтальная дальность видимости в метрах или километрах. При видимости от 1 до 10 км при отсутствии осадков обычно наблюдается дымка, при ухудшении видимости до 1 км и менее - туман. В сухую погоду видимость может ухудшаться дымом, пылью или мглою.
Явления - указаны атмосферные явления, наблюдавшиеся в срок или в последний час перед сроком; фигурными скобками обозначены явления, наблюдавшиеся между сроками (за 1-3 часа до срока); квадратными скобками обозначены град или гололедные отложения с указанием их диаметра в мм.
Облачность - указаны через наклонную черту общая и нижняя облачность в баллах и высота нижней границы облаков в метрах; квадратными скобками обозначены формы облаков: Ci - перистые, Cs - перисто-слоистые, Cc - перисто-кучевые, Ac - высококучевые, As - высокослоистые, Sc - слоисто-кучевые, Ns - слоисто-дождевые, Cu - кучевые, Cb - кучево-дождевые. Подробнее классификацию облаков см. в Атласе облаков (PDF).
T - Температура воздуха - температура, измеренная на высоте 2 м над землей.
Td - Температура точки росы - температура, при понижении до которой содержащийся в воздухе водяной пар достигнет насыщения.
f - Относительная влажность воздуха - влажноcть воздуха, измеренная на высоте 2 м над землей.
Te - Эффективная температура - температура, которую ощущает одетый по сезону человек в тени. Характеристика душности погоды. При расчете учитывается влияние влажности воздуха и скорости ветра на теплоощущения человека.
Tes - Эффективная температура на солнце - температура, которую ощущает человек, с поправкой на солнечный нагрев. Характеристика знойности погоды. Зависит от высоты солнца над горизонтом, облачности и скорости ветра. Ночью, в пасмурную погоду, а также при ветре 12 м/с и более поправка равна нулю.
P - Атмосферное давление - приведенное к уровню моря атмосферное давление.
Po - Атмосферное давление - измеренное на уровне метеостанции атмосферное давление.
Tmin - Минимальная температура - минимум температуры воздуха на высоте 2 м над землей.
Tmax - Максимальная температура - максимум температуры воздуха на высоте 2 м над землей.
R - Количество осадков - Количество выпавших осадков за период времени, мм. При наведении курсора мыши на число - период времени, за который выпало указанное количество осадков.
R24 - Количество осадков - Количество выпавших осадков за 24 часа, мм.
S - Снежный покров - Высота снежного покрова, см. При наведении курсора мыши на число - состояние снежного покрова и степень покрытия местности в баллах.